Hourly Data Report for December 13, 2019

All times are specified in Local Standard Time (LST). Add 1 hour to adjust for Daylight Saving Time where and when it is observed.

SATURNA ISLAND CS
BRITISH COLUMBIA
Current Station Operator: ECCC - MSC

48°47'02.067" N
123°02'41.082" W
24.40 m
1017101
71473
WEZ

Download Data

Hourly Data (December 2019)
Hourly Data Report for December 13, 2019
TIME Temp Definition
°C
Dew Point Definition
°C
Rel Hum Definition
%
Wind Dir Definition
10's deg

Wind Spd Definition
km/h
Visibility Definition
km
Stn Press Definition
kPa
Hmdx Definition


Wind Chill Definition


Weather Definition


00:00 7.0 6.5 96 22 20   101.32     LegendNANA
01:00 7.3 6.9 97 22 25   101.38     LegendNANA
02:00 7.6 7.1 97 20 29   101.39     LegendNANA
03:00 7.4 6.9 97 21 25   101.45     LegendNANA
04:00 7.4 7.0 97 21 28   101.45     LegendNANA
05:00 7.2 6.8 97 20 30   101.45     LegendNANA
06:00 7.3 6.8 96 20 30   101.43     LegendNANA
07:00 7.1 6.6 97 20 27   101.46     LegendNANA
08:00 7.0 6.6 97 20 25   101.47     LegendNANA
09:00 7.0 6.4 97 20 30   101.50     LegendNANA
10:00 7.4 6.4 93 19 26   101.51     LegendNANA
11:00 8.1 6.4 90 20 30   101.47     LegendNANA
12:00 8.1 6.5 90 19 23   101.44     LegendNANA
13:00 8.2 6.3 87 19 21   101.40     LegendNANA
14:00 8.0 6.2 88 19 22   101.37     LegendNANA
15:00 7.7 5.9 89 20 21   101.35     LegendNANA
16:00 7.4 5.9 90 20 27   101.34     LegendNANA
17:00 7.0 6.1 94 21 25   101.32     LegendNANA
18:00 7.0 5.8 92 22 15   101.30     LegendNANA
19:00 6.5 5.7 95 22 17   101.27     LegendNANA
20:00 6.8 5.9 94 23 14   101.25     LegendNANA
21:00 6.7 5.7 93 22 13   101.26     LegendNANA
22:00 6.8 5.9 94 21 14   101.26     LegendNANA
23:00 6.5 5.8 96 22 11   101.28     LegendNANA

Notes on Data Quality.

Legend

  • E = Estimated
  • M = Missing
  • NA = Not Available
Date modified: